Torna al catalogo

AEHF 3

USA 246

AttivoMilitareGEO
NORAD 39256·PAYLOAD·🇺🇸 United States

Lanciato Sep 18, 2013 da Cape Canaveral Space Force Station

Loading…

TLE

AggiornatoSource: Space-Track

Epoca: Sep 14, 2026, 13:12 UTC

1 39256U 13050A   26257.55053079  .00000022  00000-0  00000-0 0  9994
2 39256   5.5093  66.3111 0092009 188.4168 172.7939  1.00269145 46559

Traccia AEHF 3 in tempo reale con AllMySat

Download on the App Store